This is the latest recevied weather packets stored in our database for station/object AA6HF. If no packets are shown the sender has not sent any weather packets the latest 10 day(s).
| Time | Temp. | Humidity | Pressure | Rain* | Wind** | Luminosity | Snow |
|---|---|---|---|---|---|---|---|
| 1777945830 | 23.33° C | 28% | 1008.1 hPa | 0 mm | - | - | - |
| 1777945530 | 23.33° C | 28% | 1008 hPa | 0 mm | - | - | - |
| 1777945230 | 23.33° C | 28% | 1008 hPa | 0 mm | - | - | - |
| 1777944930 | 23.89° C | 27% | 1007.9 hPa | 0 mm | - | - | - |
| 1777944630 | 23.89° C | 26% | 1007.9 hPa | 0 mm | - | - | - |
| 1777944330 | 24.44° C | 26% | 1008 hPa | 0 mm | - | - | - |
| 1777944030 | 23.89° C | 26% | 1008 hPa | 0 mm | - | - | - |
| 1777943730 | 24.44° C | 25% | 1008 hPa | 0 mm | - | - | - |
| 1777943430 | 24.44° C | 25% | 1008 hPa | 0 mm | - | - | - |
| 1777943130 | 24.44° C | 25% | 1008.1 hPa | 0 mm | - | - | - |
| 1777942830 | 24.44° C | 25% | 1008.1 hPa | 0 mm | - | - | - |
| 1777942530 | 24.44° C | 26% | 1008 hPa | 0 mm | - | - | - |
| 1777942230 | 24.44° C | 26% | 1008 hPa | 0 mm | - | - | - |
| 1777941930 | 24.44° C | 26% | 1008 hPa | 0 mm | - | - | - |
| 1777941630 | 24.44° C | 26% | 1008 hPa | 0 mm | - | - | - |
| 1777941330 | 24.44° C | 26% | 1008 hPa | 0 mm | - | - | - |
| 1777941030 | 24.44° C | 27% | 1008.2 hPa | 0 mm | - | - | - |
| 1777940730 | 24.44° C | 26% | 1008.1 hPa | 0 mm | - | - | - |
| 1777940430 | 25° C | 26% | 1008.2 hPa | 0 mm | - | - | - |
| 1777940130 | 25° C | 24% | 1008.3 hPa | 0 mm | - | - | - |
| 1777939830 | 25.56° C | 24% | 1008.2 hPa | 0 mm | - | - | - |
| 1777939530 | 25° C | 24% | 1008.2 hPa | 0 mm | - | - | - |
| 1777939230 | 25° C | 25% | 1008.1 hPa | 0 mm | - | - | - |
| 1777938930 | 25° C | 24% | 1008.1 hPa | 0 mm | - | - | - |
| 1777938630 | 25° C | 26% | 1008.2 hPa | 0 mm | - | - | - |
* Rain latest hour (hover to see other rain measurements)
** Current wind speed in m/s (hover to see current wind gust speed)